FENGYUN 1C DEB

Satellite information

Favourite Embed

Satellite Type and Status

DEBRISIN ORBIT

Key statistics

Satellite FENGYUN 1C DEB at a glance.

Uptime

9555

Days in orbit

Revolutions

≈ 14.0

Per day

Orbit

SSO

Sun Synchronous Orbit

Inclination

98.7

Latest

Satellite identification and parameters

Extended collection of information and parameters for FENGYUN 1C DEB.

Object identification

Identified? True

Debris? True

Object name: FENGYUN 1C DEB

International designator: 1999-025ANC

Object number (NORAD): 30621

Object ID (CCSDS): 30621

Country: PEOPLES REPUBLIC OF CHINA (PRC)

Current information (Y/N): Y

RCS size: SMALL

Orbital parameters

Period: 102.678 minutes

Inclination: 98.6856 deg

SMA: 7263.472 km

Apoapsis: 989.768 km

Periapsis: 780.907 km

RAAN: 138.3562 deg

Eccentricy: 0.0143775

Argument of periapsis: 31.3932 deg

Mean anomaly: 355.1693 deg

Mean motion: 14.02446662 rev/day

Mean motion (dot): 0.00002775 rev/day2

B* drag term: 0.0016728 1/REarth

Two-line elements (TLE)

Creation date: July 6, 2025, 10:36 p.m.

Reference frame: TEME

Reference center: EARTH

Epoch: July 6, 2025, 8:20 p.m. UTC

TLE line 0: 0 FENGYUN 1C DEB

TLE line 1: 1 30621U 99025ANC 25187.84761062 .00002775 00000-0 16728-2 0 9991

TLE line 2: 2 30621 98.6856 138.3562 0143775 31.3932 355.1693 14.02446662933611

Live tracking on map

Real-time ground track for satellite FENGYUN 1C DEB.

In-orbit conjunctions

A list of the most updated potential collisions computed for object FENGYUN 1C DEB.

Target Orbit TCA Probability of collision Miss distance Type
CZ-6A R/B LEO 2024-08-21 00:55:58 0.0001880156 973.0 (m) ROCKET BODY
COSMOS 465 LEO 2024-08-01 07:25:05 0.0001730723 274.0 (m) PAYLOAD

Associated space launch

Chinese polar orbiting meteorological satellite

FENGYUN 1C DEB was lifted into orbit during the mission ‘Long March 4B | Feng Yun 1C’, on board a Long March 4B space rocket.

The launch took place on May 10, 1999, 1:33 a.m. from Launch Complex 7.

For more information about the launch, click the button.

Launch to space Long March 4B | Feng Yun 1C
Long March 4B | Feng Yun 1C

Agency: N/A

Status: Launch Successful

Launch date: May 10, 1999, 1:33 a.m. UTC

Rocket: Long March 4B

Launch pad: Launch Complex 7

Location: Taiyuan Satellite Launch Center, People's Republic of China

...

Latest news about this satellite

There are no fresh news available about this satellite. Check back as we update our databases every day.


Newsletter sign-up

Weekly statistics, charts and insights to help you stay on top of the space industry.